Weather History for Litchfield, MN

Change the Weather History Date:

Monday, May 12, 2014

  Actual Average Record
Temperature  
Mean Temperature 50 °F -  
Max Temperature 55 °F 68 °F 88 °F (1991)
Min Temperature 46 °F 44 °F 30 °F (1967)
Degree Days  
Heating Degree Days 14    
Moisture  
Dew Point 51 °F    
Average Humidity 99    
Maximum Humidity 100    
Minimum Humidity 93    
Precipitation  
Precipitation 0.23 in - - ()
Sea Level Pressure  
Sea Level Pressure 29.77 in    
Wind  
Wind Speed 10 mph (NNW)    
Max Wind Speed 16 mph    
Max Gust Speed 24 mph    
Visibility 7 miles    
Events Rain    
Averages and records for this station are not official NWS values.
T = Trace of Precipitation, MM = Missing Value Source: NWS Daily Summary

Daily Weather History Graph

Daily Weather History Graph

Search for Another Location

Airport:

Trip Planner

Search our weather history database for the weather conditions in past years. The results will help you decide how hot, cold, wet, or windy it might be!

Date:

Astronomy

May. 12, 2014 Rise Set
Actual Time 5:52 AM CDT 8:37 PM CDT
Civil Twilight 5:18 AM CDT 9:11 PM CDT
Nautical Twilight 4:35 AM CDT 9:54 PM CDT
Astronomical Twilight 3:45 AM CDT 10:44 PM CDT
Moon 6:30 PM CDT (5/12) 4:38 AM CDT (5/12)
Length of Visible Light 15h 53m
Length of Day
14h 45m
Waxing Gibbous, 95% of the Moon is Illuminated
May 12
Waxing Gibbous
May 14
Full
May 21
Last Quarter
May 28
New
Jun 5
First Quarter

Hourly Weather History & Observations

Time (CDT) Temp. Windchill Dew Point Humidity Pressure Visibility Wind Dir Wind Speed Gust Speed Precip Events Conditions
12:12 AM 55.4 °F - 55.4 °F 100% 29.78 in 10.0 mi NNE 12.7 mph 19.6 mph 0.04 in Rain Light Rain
12:33 AM 55.4 °F - 55.4 °F 100% 29.77 in 10.0 mi NE 12.7 mph 21.9 mph 0.06 in Rain Light Rain
12:53 AM 55.4 °F - 55.4 °F 100% 29.76 in 10.0 mi NE 15.0 mph 23.0 mph 0.02 in Rain Light Rain
1:12 AM 53.6 °F - 53.6 °F 100% 29.75 in 10.0 mi NE 13.8 mph - 0.03 in Rain Light Rain
1:33 AM 53.6 °F - 53.6 °F 100% 29.73 in 10.0 mi NE 13.8 mph 19.6 mph 0.03 in Rain Light Rain
1:52 AM 53.6 °F - 53.6 °F 100% 29.76 in 10.0 mi NE 10.4 mph 17.3 mph N/A Rain Light Rain
2:13 AM 53.6 °F - 53.6 °F 100% 29.75 in 10.0 mi NNE 10.4 mph - 0.06 in Rain Rain
2:33 AM 53.6 °F - 53.6 °F 100% 29.74 in 10.0 mi NNE 9.2 mph - 0.13 in Rain Light Rain
2:52 AM 53.6 °F - 53.6 °F 100% 29.73 in 10.0 mi NE 8.1 mph - N/A Rain Rain
3:13 AM 53.6 °F - 53.6 °F 100% 29.71 in 10.0 mi NE 9.2 mph - N/A   Overcast
3:32 AM 51.8 °F - 51.8 °F 100% 29.70 in 10.0 mi NE 9.2 mph - N/A   Overcast
3:53 AM 51.8 °F - 51.8 °F 100% 29.70 in 10.0 mi NNE 8.1 mph - N/A   Overcast
4:12 AM 51.8 °F - 51.8 °F 100% 29.72 in 10.0 mi NNE 5.8 mph - N/A   Overcast
4:33 AM 51.8 °F - 51.8 °F 100% 29.72 in 10.0 mi North 6.9 mph - N/A   Overcast
4:53 AM 51.8 °F - 51.8 °F 100% 29.72 in 7.0 mi North 8.1 mph - N/A   Overcast
5:13 AM 51.8 °F - 51.8 °F 100% - 4.0 mi North 5.8 mph - N/A   Overcast
5:33 AM 51.8 °F - 51.8 °F 100% 29.73 in 4.0 mi NNW 9.2 mph - N/A   Overcast
5:53 AM 51.8 °F - 51.8 °F 100% 29.72 in 2.0 mi NNW 8.1 mph - N/A   Drizzle
6:12 AM 51.8 °F - 51.8 °F 100% 29.71 in 2.5 mi North 8.1 mph - N/A   Light Drizzle
6:33 AM 51.8 °F - 51.8 °F 100% 29.71 in 2.5 mi North 10.4 mph - N/A   Overcast
6:52 AM 51.8 °F - 51.8 °F 100% 29.72 in 2.0 mi North 4.6 mph - N/A   Overcast
7:13 AM 51.8 °F - 51.8 °F 100% 29.73 in 2.0 mi NNW 10.4 mph - N/A   Overcast
7:33 AM 51.8 °F - 51.8 °F 100% 29.73 in 2.0 mi North 8.1 mph - N/A   Overcast
7:52 AM 51.8 °F - 51.8 °F 100% 29.75 in 2.5 mi North 5.8 mph - N/A   Overcast
8:13 AM 51.8 °F - 51.8 °F 100% 29.73 in 7.0 mi North 9.2 mph - N/A   Overcast
8:33 AM 51.8 °F - 51.8 °F 100% 29.74 in 4.0 mi NNW 4.6 mph - N/A   Overcast
9:13 AM 51.8 °F - 51.8 °F 100% 29.76 in 2.5 mi NW 8.1 mph - N/A   Overcast
9:33 AM 51.8 °F - 51.8 °F 100% 29.76 in 1.8 mi NW 8.1 mph - N/A   Overcast
9:52 AM 50.0 °F - 50.0 °F 100% 29.77 in 4.0 mi NW 10.4 mph - N/A   Overcast
10:13 AM 50.0 °F - 50.0 °F 100% 29.78 in 4.0 mi NW 9.2 mph - N/A   Overcast
10:33 AM 51.8 °F - 51.8 °F 100% 29.76 in 5.0 mi NNE 8.1 mph - N/A   Overcast
10:52 AM 50.0 °F - 50.0 °F 100% 29.78 in 5.0 mi North 6.9 mph - N/A   Overcast
11:13 AM 50.0 °F - 50.0 °F 100% 29.78 in 10.0 mi NNW 5.8 mph - N/A   Overcast
11:33 AM 50.0 °F - 50.0 °F 100% 29.78 in 7.0 mi North 4.6 mph - N/A   Overcast
11:52 AM 51.8 °F - 51.8 °F 100% 29.77 in 2.5 mi North 8.1 mph - N/A   Drizzle
12:13 PM 51.8 °F - 51.8 °F 100% 29.77 in 5.0 mi North 9.2 mph - N/A   Light Drizzle
12:33 PM 51.8 °F - 51.8 °F 100% 29.76 in 7.0 mi North 9.2 mph - N/A   Overcast
12:52 PM 51.8 °F - 51.8 °F 100% 29.76 in 10.0 mi North 8.1 mph - N/A   Overcast
1:13 PM 51.8 °F - 51.8 °F 100% 29.76 in 10.0 mi NNW 9.2 mph - N/A   Overcast
1:33 PM 51.8 °F - 51.8 °F 100% 29.77 in 5.0 mi NNW 8.1 mph - N/A Rain Rain
1:52 PM 51.8 °F - 51.8 °F 100% 29.77 in 2.0 mi North 5.8 mph - N/A   Drizzle
2:33 PM 51.8 °F - 51.8 °F 100% - 7.0 mi NNW 4.6 mph - N/A   Overcast
2:53 PM 51.8 °F - 51.8 °F 100% 29.79 in 10.0 mi North 3.5 mph - N/A   Overcast
3:13 PM 51.8 °F - 51.8 °F 100% 29.79 in 3.0 mi North 3.5 mph - N/A   Overcast
3:32 PM 53.6 °F - 53.6 °F 100% 29.78 in 2.5 mi North 6.9 mph - N/A   Overcast
3:53 PM 53.6 °F - 53.6 °F 100% 29.77 in 5.0 mi NNW 8.1 mph - N/A   Overcast
4:13 PM 53.6 °F - 53.6 °F 100% 29.77 in 10.0 mi North 6.9 mph - N/A   Overcast
4:32 PM 53.6 °F - 51.8 °F 94% 29.77 in 10.0 mi North 5.8 mph - N/A   Overcast
4:53 PM 53.6 °F - 51.8 °F 94% 29.77 in 10.0 mi NNW 8.1 mph - N/A   Overcast
5:13 PM 51.8 °F - 51.8 °F 100% 29.77 in 4.0 mi WNW 6.9 mph - N/A   Heavy Drizzle
5:32 PM 51.8 °F - 51.8 °F 100% 29.78 in 3.0 mi NW 10.4 mph 19.6 mph 0.03 in Rain Heavy Rain
5:53 PM 50.0 °F - 50.0 °F 100% 29.79 in 2.0 mi WNW 11.5 mph 17.3 mph 0.01 in   Drizzle
6:13 PM 48.2 °F - 48.2 °F 100% 29.80 in 3.0 mi WNW 13.8 mph 20.7 mph 0.01 in   Light Drizzle
6:32 PM 48.2 °F - 48.2 °F 100% 29.79 in 2.0 mi WNW 12.7 mph 16.1 mph 0.02 in   Drizzle
6:53 PM 48.2 °F - 48.2 °F 100% 29.79 in 3.0 mi NW 10.4 mph 17.3 mph N/A   Light Drizzle
7:13 PM 48.2 °F - 48.2 °F 100% 29.80 in 2.5 mi NW 11.5 mph 18.4 mph N/A   Drizzle
7:32 PM 48.2 °F - 48.2 °F 100% 29.80 in 2.0 mi NW 15.0 mph 19.6 mph N/A   Drizzle
7:53 PM 48.2 °F - 48.2 °F 100% 29.80 in 4.0 mi NW 10.4 mph - N/A   Light Drizzle
8:13 PM 46.4 °F 40.1 °F 46.4 °F 100% 29.80 in 10.0 mi WNW 15.0 mph 19.6 mph N/A   Light Drizzle
8:32 PM 46.4 °F 40.4 °F 46.4 °F 100% 29.81 in 10.0 mi NW 13.8 mph 17.3 mph N/A   Overcast
8:53 PM 46.4 °F 40.7 °F 46.4 °F 100% 29.80 in 10.0 mi WNW 12.7 mph 18.4 mph N/A   Overcast
9:13 PM 46.4 °F 40.4 °F 46.4 °F 100% 29.81 in 10.0 mi WNW 13.8 mph 17.3 mph N/A   Overcast
9:32 PM 46.4 °F 39.8 °F 46.4 °F 100% 29.82 in 10.0 mi WNW 16.1 mph 19.6 mph N/A   Overcast
9:53 PM 46.4 °F 40.1 °F 46.4 °F 100% 29.83 in 10.0 mi WNW 15.0 mph 21.9 mph N/A   Overcast
10:13 PM 48.2 °F - 46.4 °F 93% 29.84 in 10.0 mi WNW 12.7 mph 19.6 mph N/A   Overcast
10:32 PM 48.2 °F - 46.4 °F 93% 29.84 in 10.0 mi WNW 16.1 mph 21.9 mph N/A   Overcast
10:53 PM 48.2 °F - 46.4 °F 93% 29.84 in 10.0 mi NW 13.8 mph 24.2 mph N/A   Overcast
11:13 PM 48.2 °F - 46.4 °F 93% 29.84 in 10.0 mi WNW 15.0 mph 24.2 mph N/A   Overcast
11:33 PM 46.4 °F 40.4 °F 46.4 °F 100% 29.85 in 10.0 mi WNW 13.8 mph 20.7 mph N/A   Overcast
11:52 PM 46.4 °F 40.4 °F 46.4 °F 100% 29.86 in 10.0 mi WNW 13.8 mph 19.6 mph N/A   Overcast